FW5962 Weather Reports


time (UTC)temp
F
wind
direction
speed
knots
gust
knots
rain 1hr
in
rain 24hr
in
rain mn
in
humidity
%
barometer
mb
20260504002543 75 0 0.0 0.0 0.00 0.00 0.00 47 1010.3
20260504002048 75 0 0.0 0.0 0.00 0.00 0.00 48 1010.2
20260504001548 75 0 0.0 0.0 0.00 0.00 0.00 48 1010.2
20260504001042 75 0 0.0 0.0 0.00 0.00 0.00 47 1010.3
20260504000543 75 0 0.0 0.0 0.00 0.00 0.00 46 1010.2
20260504000051 75 0 0.0 0.0 0.00 0.00 0.00 46 1010.3
20260503235542 75 0 0.0 0.0 0.00 0.00 0.00 49 1010.4
20260503235046 75 0 0.0 0.9 0.00 0.00 0.00 48 1010.4
20260503234549 75 0 0.0 0.9 0.00 0.00 0.00 47 1010.5
20260503234041 75 0 0.0 0.0 0.00 0.00 0.00 46 1010.5
20260503233541 75 0 0.0 0.0 0.00 0.00 0.00 48 1010.5
20260503233050 75 0 0.0 0.0 0.00 0.00 0.00 47 1010.7
20260503232540 75 0 0.0 0.0 0.00 0.00 0.00 48 1010.8
20260503232040 75 0 0.0 0.0 0.00 0.00 0.00 47 1010.9
20260503231551 75 0 0.0 0.0 0.00 0.00 0.00 47 1010.9
20260503231040 75 0 0.0 0.0 0.00 0.00 0.00 47 1011.0
20260503230541 76 0 0.0 0.0 0.00 0.00 0.00 47 1011.0
20260503230052 75 0 0.0 0.0 0.00 0.00 0.00 47 1011.1
20260503225541 75 0 0.0 0.0 0.00 0.00 0.00 48 1011.2
20260503225040 76 0 0.0 0.0 0.00 0.00 0.00 47 1011.2
20260503224549 76 0 0.0 0.0 0.00 0.00 0.00 46 1011.3
20260503224041 76 0 0.0 0.0 0.00 0.00 0.00 46 1011.3
20260503223541 76 0 0.0 0.0 0.00 0.00 0.00 48 1011.3
20260503223049 76 0 0.0 0.0 0.00 0.00 0.00 48 1011.4
20260503222541 76 0 0.0 0.9 0.00 0.00 0.00 48 1011.5
20260503222042 76 0 0.0 0.9 0.00 0.00 0.00 51 1011.6
20260503221554 75 0 0.0 0.9 0.00 0.00 0.00 48 1011.5
20260503221043 75 0 0.0 0.0 0.00 0.00 0.00 50 1011.6
20260503220541 75 0 0.0 0.9 0.00 0.00 0.00 50 1011.7
20260503220051 74 0 0.0 0.9 0.00 0.00 0.00 50 1011.7
20260503215541 74 0 0.0 0.9 0.00 0.00 0.00 50 1011.8
20260503215041 74 0 0.0 0.9 0.00 0.00 0.00 49 1011.9
20260503214545 74 0 0.0 0.9 0.00 0.00 0.00 51 1011.9
20260503214040 74 0 0.0 0.9 0.00 0.00 0.00 50 1012.0
20260503213540 73 0 0.0 0.0 0.00 0.00 0.00 52 1012.0
20260503213053 73 0 0.0 0.0 0.00 0.00 0.00 54 1012.0
20260503212540 73 0 0.0 0.0 0.00 0.00 0.00 53 1011.9
20260503212040 73 0 0.0 0.9 0.00 0.00 0.00 51 1012.1
20260503211553 73 0 0.0 0.9 0.00 0.00 0.00 51 1012.0
20260503211042 73 0 0.0 0.0 0.00 0.00 0.00 52 1012.0
20260503210540 73 0 0.0 0.0 0.00 0.00 0.00 52 1012.1
20260503210047 72 0 0.0 0.0 0.00 0.00 0.00 54 1012.2
20260503205540 72 0 0.0 0.0 0.00 0.00 0.00 55 1012.3
20260503205144 72 0 0.0 0.0 0.00 0.00 0.00 55 1012.4
20260503205044 72 0 0.0 0.0 0.00 0.00 0.00 55 1012.4
20260503204600 71 0 0.0 0.0 0.00 0.00 0.00 57 1012.4
20260503204043 71 0 0.0 0.0 0.00 0.00 0.00 59 1012.6
20260503203542 70 0 0.0 0.9 0.00 0.00 0.00 58 1012.7
20260503203057 70 0 0.0 0.9 0.00 0.00 0.00 60 1012.6
20260503202550 70 0 0.0 0.9 0.00 0.00 0.00 58 1012.7
20260503202042 70 0 0.0 0.9 0.00 0.00 0.00 59 1012.7
20260503201553 69 0 0.0 0.9 0.00 0.00 0.00 60 1012.7
20260503201042 69 0 0.0 0.0 0.00 0.00 0.00 61 1012.8
20260503200542 69 0 0.0 0.0 0.00 0.00 0.00 60 1012.9
20260503200053 69 0 0.0 0.0 0.00 0.00 0.00 62 1012.8
20260503195541 69 0 0.0 0.0 0.00 0.00 0.00 63 1012.9
20260503195041 69 0 0.0 0.0 0.00 0.00 0.00 62 1012.9
20260503194556 69 0 0.0 0.0 0.00 0.00 0.00 61 1012.9
20260503194042 68 0 0.0 0.0 0.00 0.00 0.00 63 1012.9
20260503193543 68 0 0.0 0.0 0.00 0.00 0.00 65 1013.1
20260503193054 67 0 0.0 0.0 0.00 0.00 0.00 64 1013.2
20260503192542 67 0 0.0 0.0 0.00 0.00 0.00 64 1013.3
20260503192042 67 0 0.0 0.0 0.00 0.00 0.00 64 1013.3
20260503191553 67 0 0.0 0.0 0.00 0.00 0.00 64 1013.3
20260503191043 67 0 0.0 0.0 0.00 0.00 0.00 65 1013.3
20260503190543 66 0 0.0 0.0 0.00 0.00 0.00 66 1013.3
20260503190052 66 0 0.0 0.0 0.00 0.00 0.00 66 1013.4
20260503185542 66 0 0.0 0.0 0.00 0.00 0.00 67 1013.4
20260503185043 66 0 0.0 0.0 0.00 0.00 0.00 68 1013.5
20260503184601 65 0 0.0 0.0 0.00 0.00 0.00 68 1013.5
20260503184042 65 0 0.0 0.0 0.00 0.00 0.00 69 1013.5
20260503183541 65 0 0.0 0.0 0.00 0.00 0.00 69 1013.6
20260503183048 65 0 0.0 0.0 0.00 0.00 0.00 69 1013.6
20260503182548 65 0 0.0 0.0 0.00 0.00 0.00 69 1013.6
20260503182046 64 0 0.0 0.0 0.00 0.00 0.00 69 1013.7
20260503181548 65 0 0.0 0.0 0.00 0.00 0.00 69 1013.6
20260503181043 64 0 0.0 0.0 0.00 0.00 0.00 69 1013.7
20260503180544 64 0 0.0 0.0 0.00 0.00 0.00 71 1013.7
20260503180053 64 0 0.0 0.0 0.00 0.00 0.00 70 1013.7
20260503175543 64 0 0.0 0.0 0.00 0.00 0.00 70 1013.7
20260503175042 64 0 0.0 0.0 0.00 0.00 0.00 70 1013.7
20260503174612 64 0 0.0 0.0 0.00 0.00 0.00 71 1013.8
20260503174042 65 0 0.0 0.0 0.00 0.00 0.00 70 1013.7
20260503173542 65 0 0.0 0.0 0.00 0.00 0.00 69 1013.8
20260503173050 65 0 0.0 0.0 0.00 0.00 0.00 70 1013.7
20260503172543 65 0 0.0 0.0 0.00 0.00 0.00 70 1013.8
20260503172042 65 0 0.0 0.0 0.00 0.00 0.00 70 1013.9
20260503171551 65 0 0.0 0.0 0.00 0.00 0.00 70 1013.9
20260503171042 65 0 0.0 0.0 0.00 0.00 0.00 70 1013.9
20260503170542 65 0 0.0 0.0 0.00 0.00 0.00 69 1014.0
20260503150542 53 0 0.0 0.0 0.00 0.00 0.00 87 1014.1
20260503131045 49 0 0.0 0.0 0.00 0.00 0.00 88 1013.6
20260503130542 49 0 0.0 0.0 0.00 0.00 0.00 88 1013.7
20260503110542 52 0 0.0 0.0 0.00 0.00 0.00 83 1014.2
20260503100106 53 0 0.0 0.0 0.00 0.00 0.00 82 1014.4
20260503081552 55 0 0.0 0.0 0.00 0.00 0.00 77 1014.5
20260503081041 55 0 0.0 0.0 0.00 0.00 0.00 77 1014.5
20260503080541 56 0 0.0 0.0 0.00 0.00 0.00 76 1014.5
20260503072542 57 0 0.0 0.9 0.00 0.00 0.00 74 1014.4
20260503072046 57 0 0.0 0.9 0.00 0.00 0.00 73 1014.3
20260503071552 57 0 0.0 2.6 0.00 0.00 0.00 73 1014.3
20260503071041 57 0 0.0 2.6 0.00 0.00 0.00 72 1014.3
20260503070541 57 103 0.0 2.6 0.00 0.00 0.00 72 1014.2
20260503055041 63 0 0.0 2.6 0.00 0.00 0.00 59 1013.6
20260503054549 64 0 0.0 2.6 0.00 0.00 0.00 58 1013.6
20260503054042 64 0 0.0 2.6 0.00 0.00 0.00 58 1013.6
20260503053541 64 0 0.0 0.0 0.00 0.00 0.00 57 1013.6
20260503053055 64 0 0.0 0.0 0.00 0.00 0.00 56 1013.6
20260503052542 65 0 0.0 1.7 0.00 0.00 0.00 56 1013.6
20260503052042 65 0 0.0 1.7 0.00 0.00 0.00 56 1013.5
20260503051549 65 0 0.0 1.7 0.00 0.00 0.00 55 1013.5
20260503051043 65 0 0.0 3.5 0.00 0.00 0.00 54 1013.6
20260503050542 65 0 0.0 3.5 0.00 0.00 0.00 54 1013.6
20260503050052 65 0 0.0 3.5 0.00 0.00 0.00 54 1013.5
20260503045542 66 0 0.0 0.9 0.00 0.00 0.00 53 1013.6
20260503045041 66 0 0.0 0.0 0.00 0.00 0.00 53 1013.6
20260503044554 66 0 0.0 0.0 0.00 0.00 0.00 53 1013.5
20260503044042 66 0 0.0 0.0 0.00 0.00 0.00 53 1013.5
20260503043542 67 0 0.0 0.0 0.00 0.00 0.00 53 1013.5
20260503043054 67 0 0.0 0.0 0.00 0.00 0.00 51 1013.4
20260503042542 67 0 0.0 0.0 0.00 0.00 0.00 51 1013.3
20260503042042 67 0 0.0 0.0 0.00 0.00 0.00 50 1013.3
20260503041554 67 0 0.0 0.0 0.00 0.00 0.00 50 1013.3
20260503041041 67 0 0.0 0.0 0.00 0.00 0.00 50 1013.2
20260503040543 67 0 0.0 0.0 0.00 0.00 0.00 50 1013.2
20260503040047 67 0 0.0 0.0 0.00 0.00 0.00 50 1013.2
20260503035542 67 0 0.0 0.0 0.00 0.00 0.00 51 1013.1
20260503035042 67 0 0.0 0.0 0.00 0.00 0.00 51 1013.1
20260503034603 67 0 0.0 0.0 0.00 0.00 0.00 51 1012.9
20260503034044 68 0 0.0 0.0 0.00 0.00 0.00 50 1012.9
20260503033545 68 0 0.0 0.0 0.00 0.00 0.00 51 1012.8
20260503033052 68 0 0.0 0.0 0.00 0.00 0.00 51 1012.8
20260503032542 68 0 0.0 0.0 0.00 0.00 0.00 50 1012.8
20260503032044 68 0 0.0 0.0 0.00 0.00 0.00 50 1012.8
20260503031552 69 0 0.0 0.0 0.00 0.00 0.00 50 1012.7
20260503031042 69 0 0.0 0.0 0.00 0.00 0.00 51 1012.8
20260503030542 70 0 0.0 0.0 0.00 0.00 0.00 49 1012.8
20260503030056 71 0 0.0 0.0 0.00 0.00 0.00 47 1012.8
20260503025542 71 0 0.0 0.9 0.00 0.00 0.00 46 1012.7
20260503025042 71 0 0.0 0.9 0.00 0.00 0.00 46 1012.8
20260503024552 72 0 0.0 0.0 0.00 0.00 0.00 45 1012.7
20260503024042 72 0 0.0 0.0 0.00 0.00 0.00 45 1012.6
20260503023541 72 0 0.0 0.0 0.00 0.00 0.00 45 1012.6
20260503023053 72 0 0.0 0.0 0.00 0.00 0.00 45 1012.5
20260503022542 72 0 0.0 0.0 0.00 0.00 0.00 44 1012.6
20260503022042 73 0 0.0 0.0 0.00 0.00 0.00 43 1012.5
20260503021557 73 0 0.0 0.0 0.00 0.00 0.00 44 1012.4
20260503021042 73 0 0.0 0.9 0.00 0.00 0.00 42 1012.5
20260503020542 74 0 0.0 0.9 0.00 0.00 0.00 42 1012.4
20260503020045 74 0 0.0 0.0 0.00 0.00 0.00 42 1012.6
20260503015541 75 0 0.0 0.0 0.00 0.00 0.00 41 1012.7
20260503015043 75 0 0.0 0.9 0.00 0.00 0.00 42 1012.9
20260503014555 76 0 0.0 0.9 0.00 0.00 0.00 42 1012.8
20260503014042 76 0 0.0 0.0 0.00 0.00 0.00 43 1012.8
20260503013542 76 0 0.0 0.0 0.00 0.00 0.00 43 1012.8
20260503013050 76 0 0.0 0.0 0.00 0.00 0.00 43 1012.7
20260503012542 76 0 0.0 0.0 0.00 0.00 0.00 42 1012.8
20260503012041 76 0 0.0 0.9 0.00 0.00 0.00 43 1012.9
20260503011549 76 0 0.0 0.9 0.00 0.00 0.00 43 1012.9
20260503011042 77 0 0.0 0.9 0.00 0.00 0.00 44 1012.8
20260503010542 77 0 0.0 0.9 0.00 0.00 0.00 42 1013.0
20260503010051 77 0 0.0 0.9 0.00 0.00 0.00 43 1013.0
20260503005543 77 0 0.0 0.0 0.00 0.00 0.00 43 1013.0
20260503005043 77 0 0.0 0.0 0.00 0.00 0.00 46 1013.0
20260503004550 77 0 0.0 0.9 0.00 0.00 0.00 45 1013.1
20260503004046 77 0 0.0 0.9 0.00 0.00 0.00 44 1013.1
20260503003542 77 0 0.0 0.0 0.00 0.00 0.00 44 1013.1
20260503003100 77 0 0.0 0.0 0.00 0.00 0.00 46 1013.1